TimeEDT,TemperatureF,Dew PointF,Humidity,Sea Level PressureIn,VisibilityMPH,Wind Direction,Wind SpeedMPH,Gust SpeedMPH,PrecipitationIn,Events,Conditions,WindDirDegrees,DateUTC
12:15 AM,53.2,38.1,57,29.93,10.0,NNW,9.2,-,N/A,,Clear,340,2013-03-13 04:15:00
12:35 AM,52.0,37.6,58,29.93,10.0,NNW,6.9,-,N/A,,Clear,340,2013-03-13 04:35:00
12:55 AM,51.1,36.7,58,29.93,10.0,NNW,6.9,-,N/A,,Clear,340,2013-03-13 04:55:00
1:15 AM,50.2,36.1,59,29.94,10.0,NNW,6.9,-,N/A,,Clear,340,2013-03-13 05:15:00
1:35 AM,49.1,35.8,60,29.94,10.0,NNW,6.9,-,N/A,,Clear,340,2013-03-13 05:35:00
1:55 AM,48.6,35.2,60,29.95,10.0,North,5.8,-,N/A,,Clear,350,2013-03-13 05:55:00
2:15 AM,47.8,34.9,61,29.96,10.0,NNW,5.8,-,N/A,,Clear,330,2013-03-13 06:15:00
2:35 AM,47.5,34.7,61,29.96,10.0,NNW,6.9,-,N/A,,Clear,340,2013-03-13 06:35:00
2:55 AM,46.9,34.7,62,29.96,10.0,NNW,6.9,-,N/A,,Clear,330,2013-03-13 06:55:00
3:35 AM,46.4,34.2,62,29.98,10.0,NNW,8.1,-,N/A,,Clear,340,2013-03-13 07:35:00
3:55 AM,45.7,33.6,63,29.98,10.0,NNW,9.2,-,N/A,,Clear,340,2013-03-13 07:55:00
4:15 AM,45.5,32.5,61,29.98,10.0,NNW,6.9,-,N/A,,Clear,340,2013-03-13 08:15:00
4:35 AM,44.8,32.0,61,29.99,10.0,NNW,6.9,-,N/A,,Clear,340,2013-03-13 08:35:00
4:55 AM,44.6,31.8,61,30.00,10.0,NNW,8.1,-,N/A,,Clear,330,2013-03-13 08:55:00
5:15 AM,43.9,31.3,61,30.00,10.0,NNW,8.1,-,N/A,,Clear,340,2013-03-13 09:15:00
5:35 AM,43.7,31.1,61,30.01,10.0,North,8.1,-,N/A,,Clear,350,2013-03-13 09:35:00
5:55 AM,43.2,31.1,62,30.02,10.0,NNW,8.1,-,N/A,,Clear,340,2013-03-13 09:55:00
6:15 AM,43.0,30.6,62,30.02,10.0,NNW,6.9,-,N/A,,Clear,340,2013-03-13 10:15:00
6:35 AM,42.3,30.4,63,30.02,10.0,North,6.9,-,N/A,,Clear,360,2013-03-13 10:35:00
7:15 AM,41.0,29.8,64,30.04,10.0,NNW,3.5,-,N/A,,Clear,330,2013-03-13 11:15:00
7:35 AM,40.1,30.2,68,30.05,10.0,Calm,Calm,-,N/A,,Clear,0,2013-03-13 11:35:00
7:55 AM,37.4,31.1,78,30.05,10.0,Calm,Calm,-,N/A,,Clear,0,2013-03-13 11:55:00
8:15 AM,37.9,32.7,81,30.05,10.0,Calm,Calm,-,N/A,,Clear,0,2013-03-13 12:15:00
8:35 AM,41.4,33.1,72,30.05,10.0,Calm,Calm,-,N/A,,Clear,0,2013-03-13 12:35:00
8:55 AM,44.2,32.0,62,30.05,10.0,Calm,Calm,-,N/A,,Clear,0,2013-03-13 12:55:00
9:15 AM,45.7,32.2,59,30.06,10.0,North,3.5,-,N/A,,Clear,360,2013-03-13 13:15:00
9:35 AM,46.9,33.6,60,30.06,10.0,Calm,Calm,-,N/A,,Clear,0,2013-03-13 13:35:00
10:15 AM,49.1,32.9,54,30.06,10.0,Calm,Calm,-,N/A,,Clear,0,2013-03-13 14:15:00
10:35 AM,50.4,33.1,52,30.06,10.0,NW,3.5,-,N/A,,Clear,320,2013-03-13 14:35:00
10:55 AM,51.6,32.9,49,30.06,10.0,West,5.8,-,N/A,,Clear,270,2013-03-13 14:55:00
11:15 AM,52.0,32.2,47,30.05,10.0,WNW,8.1,-,N/A,,Clear,300,2013-03-13 15:15:00
11:35 AM,53.2,31.5,43,30.05,10.0,WNW,9.2,-,N/A,,Clear,300,2013-03-13 15:35:00
11:55 AM,53.2,29.3,40,30.05,10.0,NW,5.8,-,N/A,,Clear,320,2013-03-13 15:55:00
12:15 PM,53.8,29.1,39,30.04,10.0,WSW,6.9,-,N/A,,Clear,250,2013-03-13 16:15:00
12:35 PM,55.6,28.2,35,30.04,10.0,West,10.4,17.3,N/A,,Clear,280,2013-03-13 16:35:00
12:55 PM,55.6,27.5,34,30.03,10.0,West,8.1,16.1,N/A,,Clear,280,2013-03-13 16:55:00
1:15 PM,56.1,26.6,32,30.02,10.0,West,12.7,19.6,N/A,,Clear,280,2013-03-13 17:15:00
1:35 PM,56.8,25.3,30,30.01,10.0,NW,8.1,16.1,N/A,,Clear,310,2013-03-13 17:35:00
1:55 PM,57.6,26.1,30,30.00,10.0,West,9.2,-,N/A,,Clear,270,2013-03-13 17:55:00
2:15 PM,58.5,25.7,29,29.99,10.0,West,13.8,19.6,N/A,,Scattered Clouds,260,2013-03-13 18:15:00
2:35 PM,57.9,25.9,29,29.98,10.0,West,10.4,16.1,N/A,,Mostly Cloudy,280,2013-03-13 18:35:00
3:15 PM,57.7,26.4,30,29.96,10.0,West,8.1,20.7,N/A,,Overcast,260,2013-03-13 19:15:00
3:35 PM,60.6,25.7,26,29.95,10.0,WSW,16.1,21.9,N/A,,Overcast,250,2013-03-13 19:35:00
3:55 PM,59.7,25.2,27,29.95,10.0,West,12.7,20.7,N/A,,Mostly Cloudy,260,2013-03-13 19:55:00
4:15 PM,56.8,25.2,30,29.94,10.0,WNW,6.9,-,N/A,,Scattered Clouds,300,2013-03-13 20:15:00
4:35 PM,58.3,26.6,30,29.94,10.0,WSW,12.7,17.3,N/A,,Mostly Cloudy,250,2013-03-13 20:35:00
4:55 PM,59.2,26.2,28,29.94,10.0,NW,10.4,16.1,N/A,,Overcast,310,2013-03-13 20:55:00
5:15 PM,56.7,24.8,29,29.95,10.0,West,9.2,23.0,N/A,,Mostly Cloudy,280,2013-03-13 21:15:00
5:35 PM,57.6,25.9,30,29.95,10.0,West,9.2,16.1,N/A,,Mostly Cloudy,280,2013-03-13 21:35:00
5:55 PM,58.3,25.2,28,29.95,10.0,NW,6.9,20.7,N/A,,Scattered Clouds,320,2013-03-13 21:55:00
6:15 PM,56.5,26.6,32,29.96,10.0,West,13.8,20.7,N/A,,Scattered Clouds,270,2013-03-13 22:15:00
6:35 PM,55.6,25.3,31,29.96,10.0,WNW,9.2,16.1,N/A,,Scattered Clouds,300,2013-03-13 22:35:00
6:55 PM,54.5,25.7,33,29.97,10.0,WNW,8.1,-,N/A,,Clear,290,2013-03-13 22:55:00
7:15 PM,53.8,26.1,34,29.98,10.0,WNW,5.8,-,N/A,,Clear,290,2013-03-13 23:15:00
7:35 PM,52.3,25.7,36,29.99,10.0,WNW,4.6,-,N/A,,Clear,300,2013-03-13 23:35:00
7:55 PM,51.8,25.5,36,30.00,10.0,NW,4.6,-,N/A,,Scattered Clouds,320,2013-03-13 23:55:00
8:15 PM,51.1,25.2,36,30.00,10.0,NW,8.1,-,N/A,,Clear,310,2013-03-14 00:15:00
8:35 PM,50.9,25.2,37,30.01,10.0,NNW,9.2,-,N/A,,Clear,340,2013-03-14 00:35:00
8:55 PM,49.3,27.9,44,30.03,10.0,NNW,9.2,-,N/A,,Clear,340,2013-03-14 00:55:00
9:15 PM,48.2,28.4,46,30.03,10.0,NNW,9.2,-,N/A,,Clear,340,2013-03-14 01:15:00
9:35 PM,47.7,27.5,46,30.04,10.0,NNW,9.2,19.6,N/A,,Clear,340,2013-03-14 01:35:00
9:55 PM,46.8,26.8,46,30.06,10.0,NNW,11.5,16.1,N/A,,Clear,330,2013-03-14 01:55:00
10:15 PM,46.0,24.6,43,30.07,10.0,NNW,10.4,17.3,N/A,,Clear,330,2013-03-14 02:15:00
10:35 PM,45.3,23.7,43,30.08,10.0,NNW,6.9,17.3,N/A,,Clear,340,2013-03-14 02:35:00
10:55 PM,44.6,23.4,43,30.08,10.0,NNW,9.2,17.3,N/A,,Scattered Clouds,330,2013-03-14 02:55:00
11:15 PM,44.1,22.3,42,30.09,10.0,NNW,11.5,17.3,N/A,,Mostly Cloudy,340,2013-03-14 03:15:00
11:35 PM,43.9,21.0,40,30.10,10.0,NNW,9.2,19.6,N/A,,Overcast,340,2013-03-14 03:35:00
11:55 PM,43.0,20.3,40,30.11,10.0,NNW,13.8,19.6,N/A,,Overcast,330,2013-03-14 03:55:00